Location: Haut Kerinec
(48.0623°N, 4.4081°W)
Time: 18:55:37
(UTC+00:00)

Meteor 1-15 Rocket - Pass Details

Date: 01 June 2020
Orbit: 840 x 907 km, 81.2° (Epoch: 06 July)

Event Time Altitude Azimuth Distance (km) Brightness Sun altitude
Rises 21:07:35 0° 349° (N) 3,547 8.5 -8.1°
Reaches altitude 10° 21:10:05 10° 352° (N) 2,603 7.7 -8.4°
Maximum altitude 21:16:01 69° 76° (ENE) 967 4.4 -9.0°
Drops below altitude 10° 21:21:53 10° 160° (SSE) 2,571 6.1 -9.7°
Enters shadow 21:21:53 10° 160° (SSE) 2,574 6.1 -9.7°
